Home   Weather   Qatar   Doha   Past weeks
Flag for Qatar

Past Weather in Doha, Qatar — Yesterday and Last 2 Weeks

Currently: 115 °F. Sunny. (Weather station: Doha International Airport, Qatar). See more current weather

Past Weather in Doha — Graph

°F

Doha Temperature Yesterday

Maximum temperature yesterday: 108 °F (at 10:30 am)
Minimum temperature yesterday: 90 °F (at 4:30 am)
Average temperature yesterday: 97 °F

High & Low Weather Summary for the Past Weeks

 TemperatureHumidityPressure
High115 °F (Jun 12, 11:30 am)89% (Jun 8, 4:00 am)29.68 "Hg (Jun 8, 4:00 am)
Low84 °F (Jun 5, 4:30 am)8% (Jun 14, 1:00 pm)29.45 "Hg (Jun 14, 3:30 pm)
Average96 °F44%29.56 "Hg
* Reported Jun 4 11:00 am — Jun 19 11:30 am, Doha. Weather by CustomWeather, © 2024

Note: Actual official high and low records may vary slightly from our data, if they occured in-between our weather recording intervals... More about our weather records

Doha Weather History for the Previous 24 Hours

Scroll right to see more
 ConditionsComfort  
Time TempWeatherWind HumidityBarometerVisibility
11:30 am
Wed, Jun 19
115 °FPassing clouds.9 mph11%29.53 "HgN/A
10:30 am113 °FPassing clouds.8 mph11%29.53 "HgN/A
10:00 am113 °FPassing clouds.8 mph11%29.53 "HgN/A
9:30 am111 °FPassing clouds.6 mph15%29.53 "HgN/A
8:30 am108 °FPassing clouds.7 mph20%29.53 "HgN/A
7:30 am104 °FPassing clouds.6 mph23%29.53 "HgN/A
7:00 am100 °FPassing clouds.6 mph25%29.53 "HgN/A
6:30 am99 °FPassing clouds.5 mph29%29.53 "HgN/A
6:00 am97 °FSunny.5 mph30%29.53 "Hg10 mi
5:30 am95 °FSunny.6 mph32%29.50 "Hg10 mi
5:00 am93 °FPassing clouds.7 mph34%29.50 "HgN/A
4:30 am95 °FClear.5 mph30%29.50 "Hg10 mi
4:00 am95 °FPassing clouds.3 mph30%29.50 "HgN/A
3:30 am97 °FPassing clouds.3 mph27%29.47 "HgN/A
3:00 am95 °FClear.2 mph32%29.47 "Hg10 mi
2:30 am97 °FClear.2 mph30%29.50 "Hg10 mi
2:00 am95 °FClear.2 mph36%29.50 "Hg10 mi
1:30 am97 °FClear.2 mph39%29.50 "Hg10 mi
1:00 am97 °FPassing clouds.3 mph42%29.50 "HgN/A
12:30 am95 °FClear.2 mph47%29.53 "Hg10 mi
12:00 am93 °FClear.2 mph53%29.53 "Hg10 mi
11:30 pm
Tue, Jun 18
95 °FClear.5 mph50%29.53 "Hg10 mi
11:00 pm95 °FClear.2 mph50%29.53 "Hg10 mi
10:30 pm95 °FClear.2 mph53%29.56 "Hg10 mi
10:00 pm93 °FClear.1 mph59%29.56 "Hg10 mi
9:30 pm95 °FClear.2 mph53%29.56 "Hg10 mi
9:00 pm97 °FClear.3 mph50%29.56 "Hg10 mi
8:30 pm97 °FClear.3 mph47%29.56 "Hg10 mi
8:00 pm99 °FClear.6 mph42%29.56 "Hg10 mi
7:30 pm99 °FClear.7 mph39%29.56 "Hg10 mi
7:00 pm100 °FClear.6 mph33%29.53 "Hg10 mi
6:00 pm102 °FSunny.6 mph27%29.53 "Hg10 mi
5:30 pm104 °FSunny.8 mph23%29.53 "Hg10 mi
5:00 pm104 °FSunny.8 mph24%29.53 "Hg10 mi
3:30 pm104 °FSunny.12 mph31%29.53 "Hg10 mi
1:30 pm108 °FPassing clouds.9 mph23%29.56 "HgN/A
Weather by CustomWeather, © 2024

See weather overview